| time (UTC) | temp F | wind direction | speed MPH | gust MPH | rain 1hr in | rain 24hr in | rain mn in | humidity % | barometer mb |
| 20260902163518 | 67 | 136 | 1.0 | 7.0 | 0.00 | 0.00 | 0.00 | 68 | 1017.0 |
| 20260902162019 | 65 | 92 | 0.0 | 6.0 | 0.00 | 0.00 | 0.00 | 74 | 1017.1 |
| 20260902161020 | 63 | 107 | 2.0 | 7.0 | 0.00 | 0.00 | 0.00 | 78 | 1017.2 |
| 20260902160520 | 62 | 84 | 3.0 | 8.0 | 0.00 | 0.00 | 0.00 | 78 | 1017.2 |
| 20260902154019 | 60 | 74 | 1.0 | 4.0 | 0.00 | 0.00 | 0.00 | 82 | 1017.1 |
| 20260902153518 | 59 | 86 | 2.0 | 4.0 | 0.00 | 0.00 | 0.00 | 82 | 1017.1 |
| 20260902152519 | 59 | 0 | 0.0 | 0.0 | 0.00 | 0.00 | 0.00 | 83 | 1017.2 |
| 20260902152017 | 58 | 0 | 0.0 | 0.0 | 0.00 | 0.00 | 0.00 | 83 | 1017.1 |
| 20260902151017 | 58 | 0 | 0.0 | 3.0 | 0.00 | 0.00 | 0.00 | 83 | 1016.9 |
| 20260902150518 | 57 | 0 | 0.0 | 4.0 | 0.00 | 0.00 | 0.00 | 83 | 1016.9 |
| 20260902145518 | 57 | 79 | 2.0 | 3.0 | 0.00 | 0.00 | 0.00 | 84 | 1016.7 |
| 20260902145023 | 57 | 0 | 1.0 | 4.0 | 0.00 | 0.00 | 0.00 | 84 | 1016.8 |
| 20260902144018 | 56 | 115 | 0.0 | 4.0 | 0.00 | 0.00 | 0.00 | 85 | 1016.7 |
| 20260902143518 | 56 | 0 | 1.0 | 4.0 | 0.00 | 0.00 | 0.00 | 85 | 1016.6 |
| 20260902142517 | 55 | 89 | 2.0 | 4.0 | 0.00 | 0.00 | 0.00 | 85 | 1016.5 |
| 20260902142018 | 55 | 79 | 2.0 | 4.0 | 0.00 | 0.00 | 0.00 | 86 | 1016.7 |
| 20260902141017 | 55 | 0 | 0.0 | 3.0 | 0.00 | 0.00 | 0.00 | 85 | 1016.6 |
| 20260902135519 | 55 | 79 | 1.0 | 2.0 | 0.00 | 0.00 | 0.00 | 85 | 1016.6 |
| 20260902135018 | 54 | 0 | 0.0 | 0.0 | 0.00 | 0.00 | 0.00 | 85 | 1016.6 |
| 20260902134019 | 54 | 0 | 0.0 | 2.0 | 0.00 | 0.00 | 0.00 | 85 | 1016.5 |
| 20260902133521 | 54 | 0 | 0.0 | 2.0 | 0.00 | 0.00 | 0.00 | 85 | 1016.4 |
| 20260902132517 | 54 | 0 | 0.0 | 3.0 | 0.00 | 0.00 | 0.00 | 85 | 1016.2 |
| 20260902132018 | 54 | 0 | 0.0 | 3.0 | 0.00 | 0.00 | 0.00 | 85 | 1016.1 |
| 20260902131020 | 54 | 76 | 2.0 | 3.0 | 0.00 | 0.00 | 0.00 | 85 | 1016.1 |
| 20260902130521 | 54 | 80 | 2.0 | 4.0 | 0.00 | 0.00 | 0.00 | 85 | 1016.1 |
| 20260902125517 | 54 | 75 | 3.0 | 5.0 | 0.00 | 0.00 | 0.00 | 85 | 1016.0 |
| 20260902125017 | 54 | 73 | 4.0 | 5.0 | 0.00 | 0.00 | 0.00 | 84 | 1016.1 |
| 20260902124534 | 54 | 74 | 2.0 | 4.0 | 0.00 | 0.00 | 0.00 | 84 | 1016.1 |
| 20260902124015 | 54 | 26 | 0.0 | 4.0 | 0.00 | 0.00 | 0.00 | 84 | 1016.2 |
| 20260902122518 | 54 | 80 | 3.0 | 5.0 | 0.00 | 0.00 | 0.00 | 85 | 1016.2 |
| 20260902122018 | 54 | 78 | 3.0 | 7.0 | 0.00 | 0.00 | 0.00 | 84 | 1016.1 |
| 20260902121019 | 54 | 84 | 4.0 | 7.0 | 0.00 | 0.00 | 0.00 | 85 | 1016.1 |
| 20260902120520 | 54 | 71 | 3.0 | 4.0 | 0.00 | 0.00 | 0.00 | 85 | 1016.2 |
| 20260902115518 | 54 | 74 | 2.0 | 4.0 | 0.00 | 0.00 | 0.00 | 84 | 1016.2 |
| 20260902115018 | 54 | 80 | 2.0 | 4.0 | 0.00 | 0.00 | 0.00 | 85 | 1016.1 |
| 20260902114016 | 54 | 74 | 1.0 | 3.0 | 0.00 | 0.00 | 0.00 | 85 | 1016.2 |
| 20260902113520 | 54 | 68 | 2.0 | 3.0 | 0.00 | 0.00 | 0.00 | 85 | 1016.2 |
| 20260902112520 | 54 | 108 | 1.0 | 3.0 | 0.00 | 0.00 | 0.00 | 84 | 1016.1 |
| 20260902112023 | 54 | 101 | 1.0 | 4.0 | 0.00 | 0.00 | 0.00 | 84 | 1015.9 |
| 20260902111018 | 54 | 94 | 1.0 | 3.0 | 0.00 | 0.00 | 0.00 | 83 | 1016.0 |
| 20260902110517 | 54 | 0 | 0.0 | 3.0 | 0.00 | 0.00 | 0.00 | 84 | 1016.1 |
| 20260902105520 | 55 | 73 | 2.0 | 4.0 | 0.00 | 0.00 | 0.00 | 84 | 1016.3 |
| 20260902104020 | 55 | 78 | 1.0 | 3.0 | 0.00 | 0.00 | 0.00 | 84 | 1016.2 |
| 20260902103519 | 55 | 0 | 0.0 | 3.0 | 0.00 | 0.00 | 0.00 | 84 | 1016.2 |
| 20260902102516 | 55 | 110 | 0.0 | 2.0 | 0.00 | 0.00 | 0.00 | 84 | 1016.3 |
| 20260902102016 | 55 | 0 | 0.0 | 3.0 | 0.00 | 0.00 | 0.00 | 84 | 1016.3 |
| 20260902101536 | 55 | 86 | 1.0 | 4.0 | 0.00 | 0.00 | 0.00 | 83 | 1016.4 |
| 20260902101018 | 55 | 80 | 2.0 | 4.0 | 0.00 | 0.00 | 0.00 | 83 | 1016.5 |
| 20260902095520 | 55 | 78 | 3.0 | 4.0 | 0.00 | 0.00 | 0.00 | 82 | 1016.5 |
| 20260902095019 | 55 | 74 | 2.0 | 4.0 | 0.00 | 0.00 | 0.00 | 82 | 1016.5 |
| 20260902094019 | 55 | 0 | 0.0 | 1.0 | 0.00 | 0.00 | 0.00 | 81 | 1016.4 |
| 20260902093520 | 55 | 0 | 0.0 | 2.0 | 0.00 | 0.00 | 0.00 | 81 | 1016.4 |
| 20260902092518 | 55 | 182 | 0.0 | 2.0 | 0.00 | 0.00 | 0.00 | 81 | 1016.4 |
| 20260902092019 | 55 | 0 | 0.0 | 2.0 | 0.00 | 0.00 | 0.00 | 81 | 1016.4 |
| 20260902091536 | 55 | 101 | 0.0 | 1.0 | 0.00 | 0.00 | 0.00 | 80 | 1016.3 |
| 20260902091019 | 56 | 0 | 0.0 | 0.0 | 0.00 | 0.00 | 0.00 | 81 | 1016.4 |
| 20260902090518 | 56 | 0 | 0.0 | 0.0 | 0.00 | 0.00 | 0.00 | 81 | 1016.4 |
| 20260902085518 | 56 | 0 | 0.0 | 2.0 | 0.00 | 0.00 | 0.00 | 82 | 1016.3 |
| 20260902085019 | 56 | 101 | 0.0 | 3.0 | 0.00 | 0.00 | 0.00 | 82 | 1016.4 |
| 20260902084023 | 56 | 96 | 1.0 | 3.0 | 0.00 | 0.00 | 0.00 | 81 | 1016.4 |
| 20260902083520 | 56 | 101 | 0.0 | 3.0 | 0.00 | 0.00 | 0.00 | 81 | 1016.4 |
| 20260902082519 | 57 | 0 | 0.0 | 2.0 | 0.00 | 0.00 | 0.00 | 79 | 1016.3 |
| 20260902082018 | 57 | 0 | 0.0 | 2.0 | 0.00 | 0.00 | 0.00 | 80 | 1016.3 |
| 20260902081536 | 57 | 0 | 0.0 | 3.0 | 0.00 | 0.00 | 0.00 | 80 | 1016.3 |
| 20260902081018 | 57 | 0 | 1.0 | 3.0 | 0.00 | 0.00 | 0.00 | 80 | 1016.3 |
| 20260902080518 | 57 | 0 | 0.0 | 4.0 | 0.00 | 0.00 | 0.00 | 81 | 1016.3 |
| 20260902075519 | 56 | 96 | 1.0 | 3.0 | 0.00 | 0.00 | 0.00 | 79 | 1016.3 |
| 20260902075023 | 57 | 103 | 0.0 | 1.0 | 0.00 | 0.00 | 0.00 | 80 | 1016.2 |
| 20260902074020 | 57 | 0 | 0.0 | 4.0 | 0.00 | 0.00 | 0.00 | 80 | 1016.3 |
| 20260902073520 | 57 | 95 | 2.0 | 4.0 | 0.00 | 0.00 | 0.00 | 80 | 1016.3 |
| 20260902072518 | 58 | 0 | 0.0 | 3.0 | 0.00 | 0.00 | 0.00 | 78 | 1016.3 |
| 20260902072018 | 58 | 0 | 0.0 | 3.0 | 0.00 | 0.00 | 0.00 | 79 | 1016.2 |
| 20260902071542 | 57 | 0 | 0.0 | 3.0 | 0.00 | 0.00 | 0.00 | 80 | 1016.2 |
| 20260902071016 | 57 | 0 | 0.0 | 4.0 | 0.00 | 0.00 | 0.00 | 80 | 1016.2 |
| 20260902070521 | 57 | 103 | 1.0 | 4.0 | 0.00 | 0.00 | 0.00 | 79 | 1016.2 |
| 20260902070037 | 57 | 96 | 1.0 | 4.0 | 0.00 | 0.00 | 0.00 | 79 | 1016.2 |
| 20260902065018 | 58 | 0 | 0.0 | 4.0 | 0.00 | 0.00 | 0.00 | 80 | 1016.2 |
| 20260902064020 | 57 | 104 | 1.0 | 6.0 | 0.00 | 0.00 | 0.00 | 80 | 1016.3 |
| 20260902063521 | 57 | 110 | 2.0 | 6.0 | 0.00 | 0.00 | 0.00 | 80 | 1016.4 |
| 20260902063033 | 57 | 95 | 2.0 | 4.0 | 0.00 | 0.00 | 0.00 | 79 | 1016.4 |
| 20260902062520 | 58 | 102 | 1.0 | 3.0 | 0.00 | 0.00 | 0.00 | 79 | 1016.4 |
| 20260902062021 | 58 | 96 | 1.0 | 3.0 | 0.00 | 0.00 | 0.00 | 78 | 1016.4 |
| 20260902061020 | 59 | 0 | 0.0 | 0.0 | 0.00 | 0.00 | 0.00 | 77 | 1016.4 |
| 20260902060519 | 59 | 0 | 0.0 | 1.0 | 0.00 | 0.00 | 0.00 | 77 | 1016.3 |
| 20260902055517 | 60 | 0 | 1.0 | 7.0 | 0.00 | 0.00 | 0.00 | 77 | 1016.4 |
| 20260902055019 | 60 | 200 | 3.0 | 7.0 | 0.00 | 0.00 | 0.00 | 76 | 1016.4 |
| 20260902054018 | 61 | 192 | 4.0 | 7.0 | 0.00 | 0.00 | 0.00 | 76 | 1016.4 |
| 20260902053520 | 61 | 192 | 4.0 | 7.0 | 0.00 | 0.00 | 0.00 | 76 | 1016.4 |
| 20260902053034 | 61 | 204 | 4.0 | 6.0 | 0.00 | 0.00 | 0.00 | 75 | 1016.4 |
| 20260902051019 | 62 | 227 | 5.0 | 11.0 | 0.00 | 0.00 | 0.00 | 73 | 1016.4 |
| 20260902050518 | 62 | 219 | 6.0 | 11.0 | 0.00 | 0.00 | 0.00 | 73 | 1016.5 |
| 20260902045517 | 62 | 245 | 8.0 | 13.0 | 0.00 | 0.00 | 0.00 | 72 | 1016.3 |
| 20260902045016 | 62 | 236 | 7.0 | 13.0 | 0.00 | 0.00 | 0.00 | 71 | 1016.3 |
| 20260902044537 | 62 | 263 | 10.0 | 14.0 | 0.00 | 0.00 | 0.00 | 71 | 1016.3 |
| 20260902044018 | 63 | 257 | 10.0 | 14.0 | 0.00 | 0.00 | 0.00 | 70 | 1016.0 |
| 20260902043517 | 63 | 251 | 8.0 | 14.0 | 0.00 | 0.00 | 0.00 | 69 | 1016.0 |
| 20260902042520 | 63 | 253 | 8.0 | 17.0 | 0.00 | 0.00 | 0.00 | 68 | 1016.1 |
| 20260902042020 | 63 | 244 | 10.0 | 17.0 | 0.00 | 0.00 | 0.00 | 67 | 1015.9 |
| 20260902041019 | 64 | 245 | 10.0 | 18.0 | 0.00 | 0.00 | 0.00 | 66 | 1015.8 |
| 20260902040519 | 64 | 261 | 12.0 | 20.0 | 0.00 | 0.00 | 0.00 | 66 | 1015.8 |
| 20260902035523 | 65 | 229 | 12.0 | 20.0 | 0.00 | 0.00 | 0.00 | 65 | 1015.5 |
| 20260902035026 | 65 | 219 | 12.0 | 20.0 | 0.00 | 0.00 | 0.00 | 64 | 1015.4 |
| 20260902034537 | 65 | 261 | 9.0 | 18.0 | 0.00 | 0.00 | 0.00 | 64 | 1015.3 |
| 20260902034018 | 65 | 262 | 11.0 | 18.0 | 0.00 | 0.00 | 0.00 | 64 | 1015.3 |
| 20260902033517 | 65 | 246 | 9.0 | 16.0 | 0.00 | 0.00 | 0.00 | 63 | 1015.2 |
| 20260902033041 | 65 | 254 | 11.0 | 16.0 | 0.00 | 0.00 | 0.00 | 63 | 1015.1 |
| 20260902032519 | 65 | 238 | 11.0 | 15.0 | 0.00 | 0.00 | 0.00 | 62 | 1015.0 |
| 20260902031020 | 66 | 251 | 9.0 | 14.0 | 0.00 | 0.00 | 0.00 | 62 | 1014.9 |
| 20260902030523 | 66 | 252 | 9.0 | 14.0 | 0.00 | 0.00 | 0.00 | 61 | 1014.8 |
| 20260902025519 | 66 | 261 | 8.0 | 14.0 | 0.00 | 0.00 | 0.00 | 60 | 1014.7 |
| 20260902025018 | 66 | 248 | 8.0 | 14.0 | 0.00 | 0.00 | 0.00 | 59 | 1014.6 |
| 20260902024018 | 67 | 241 | 11.0 | 17.0 | 0.00 | 0.00 | 0.00 | 58 | 1014.5 |
| 20260902023517 | 67 | 262 | 11.0 | 17.0 | 0.00 | 0.00 | 0.00 | 57 | 1014.5 |
| 20260902022520 | 67 | 238 | 10.0 | 16.0 | 0.00 | 0.00 | 0.00 | 57 | 1014.3 |
| 20260902022020 | 68 | 246 | 8.0 | 16.0 | 0.00 | 0.00 | 0.00 | 56 | 1014.2 |
| 20260902021018 | 68 | 244 | 9.0 | 16.0 | 0.00 | 0.00 | 0.00 | 56 | 1014.2 |
| 20260902020521 | 68 | 244 | 11.0 | 17.0 | 0.00 | 0.00 | 0.00 | 55 | 1014.1 |
| 20260902015519 | 69 | 255 | 12.0 | 18.0 | 0.00 | 0.00 | 0.00 | 53 | 1014.1 |
| 20260902015021 | 70 | 246 | 11.0 | 16.0 | 0.00 | 0.00 | 0.00 | 52 | 1014.0 |
| 20260902014017 | 71 | 250 | 10.0 | 16.0 | 0.00 | 0.00 | 0.00 | 50 | 1013.9 |
| 20260902013522 | 71 | 242 | 9.0 | 15.0 | 0.00 | 0.00 | 0.00 | 49 | 1013.9 |
| 20260902012521 | 72 | 247 | 11.0 | 15.0 | 0.00 | 0.00 | 0.00 | 49 | 1013.9 |
| 20260902005548 | 74 | 245 | 9.0 | 15.0 | 0.00 | 0.00 | 0.00 | 46 | 1013.8 |
| 20260902005020 | 74 | 284 | 10.0 | 15.0 | 0.00 | 0.00 | 0.00 | 46 | 1013.8 |
| 20260902004022 | 74 | 282 | 8.0 | 15.0 | 0.00 | 0.00 | 0.00 | 45 | 1013.8 |
| 20260902003519 | 75 | 244 | 9.0 | 15.0 | 0.00 | 0.00 | 0.00 | 44 | 1013.8 |
| 20260902002519 | 75 | 277 | 8.0 | 17.0 | 0.00 | 0.00 | 0.00 | 46 | 1013.9 |
| 20260902002018 | 75 | 277 | 10.0 | 17.0 | 0.00 | 0.00 | 0.00 | 44 | 1013.7 |
| 20260902001015 | 76 | 261 | 7.0 | 13.0 | 0.00 | 0.00 | 0.00 | 43 | 1013.8 |
| 20260901235519 | 76 | 252 | 10.0 | 16.0 | 0.00 | 0.00 | 0.00 | 41 | 1013.8 |
| 20260901235019 | 76 | 238 | 9.0 | 12.0 | 0.00 | 0.00 | 0.00 | 42 | 1013.8 |
| 20260901234017 | 77 | 219 | 7.0 | 15.0 | 0.00 | 0.00 | 0.00 | 40 | 1013.9 |
| 20260901233519 | 77 | 232 | 9.0 | 15.0 | 0.00 | 0.00 | 0.00 | 39 | 1013.9 |
| 20260901233052 | 77 | 223 | 7.0 | 12.0 | 0.00 | 0.00 | 0.00 | 40 | 1014.0 |
| 20260901232516 | 77 | 269 | 7.0 | 16.0 | 0.00 | 0.00 | 0.00 | 42 | 1014.0 |
| 20260901232016 | 77 | 256 | 8.0 | 16.0 | 0.00 | 0.00 | 0.00 | 39 | 1014.0 |
| 20260901231018 | 76 | 299 | 5.0 | 11.0 | 0.00 | 0.00 | 0.00 | 42 | 1014.2 |
| 20260901230522 | 77 | 271 | 6.0 | 14.0 | 0.00 | 0.00 | 0.00 | 41 | 1014.1 |
| 20260901225518 | 77 | 240 | 5.0 | 13.0 | 0.00 | 0.00 | 0.00 | 40 | 1014.3 |
| 20260901225018 | 78 | 229 | 8.0 | 14.0 | 0.00 | 0.00 | 0.00 | 38 | 1014.3 |
| 20260901224536 | 78 | 247 | 9.0 | 14.0 | 0.00 | 0.00 | 0.00 | 39 | 1014.2 |
| 20260901224020 | 78 | 229 | 6.0 | 12.0 | 0.00 | 0.00 | 0.00 | 40 | 1014.4 |
| 20260901223519 | 78 | 196 | 3.0 | 12.0 | 0.00 | 0.00 | 0.00 | 40 | 1014.4 |
| 20260901223038 | 78 | 167 | 8.0 | 16.0 | 0.00 | 0.00 | 0.00 | 41 | 1014.4 |
| 20260901222521 | 78 | 234 | 8.0 | 16.0 | 0.00 | 0.00 | 0.00 | 39 | 1014.5 |
| 20260901222019 | 78 | 234 | 6.0 | 13.0 | 0.00 | 0.00 | 0.00 | 41 | 1014.5 |
| 20260901221536 | 77 | 241 | 7.0 | 13.0 | 0.00 | 0.00 | 0.00 | 44 | 1014.7 |
| 20260901221024 | 77 | 273 | 7.0 | 14.0 | 0.00 | 0.00 | 0.00 | 44 | 1014.7 |
| 20260901220518 | 77 | 261 | 10.0 | 19.0 | 0.00 | 0.00 | 0.00 | 42 | 1014.7 |
| 20260901220036 | 77 | 237 | 11.0 | 19.0 | 0.00 | 0.00 | 0.00 | 42 | 1014.7 |
| 20260901215520 | 76 | 281 | 0.0 | 15.0 | 0.00 | 0.00 | 0.00 | 43 | 1014.7 |
| 20260901215016 | 77 | 252 | 8.0 | 15.0 | 0.00 | 0.00 | 0.00 | 42 | 1014.9 |
| 20260901214541 | 77 | 291 | 6.0 | 16.0 | 0.00 | 0.00 | 0.00 | 43 | 1014.9 |
| 20260901214018 | 77 | 240 | 10.0 | 16.0 | 0.00 | 0.00 | 0.00 | 42 | 1014.9 |
| 20260901213521 | 77 | 200 | 4.0 | 15.0 | 0.00 | 0.00 | 0.00 | 42 | 1014.8 |
| 20260901213040 | 77 | 225 | 10.0 | 15.0 | 0.00 | 0.00 | 0.00 | 43 | 1014.8 |
| 20260901212520 | 76 | 261 | 7.0 | 13.0 | 0.00 | 0.00 | 0.00 | 45 | 1014.8 |
| 20260901212018 | 77 | 243 | 7.0 | 15.0 | 0.00 | 0.00 | 0.00 | 43 | 1014.8 |
| 20260901211537 | 76 | 184 | 10.0 | 15.0 | 0.00 | 0.00 | 0.00 | 45 | 1014.9 |
| 20260901211018 | 75 | 269 | 8.0 | 13.0 | 0.00 | 0.00 | 0.00 | 47 | 1014.9 |
| 20260901210519 | 74 | 235 | 4.0 | 12.0 | 0.00 | 0.00 | 0.00 | 48 | 1014.9 |
| 20260901210035 | 75 | 269 | 8.0 | 13.0 | 0.00 | 0.00 | 0.00 | 46 | 1015.1 |
| 20260901205518 | 75 | 217 | 7.0 | 13.0 | 0.00 | 0.00 | 0.00 | 46 | 1015.0 |
| 20260901205017 | 75 | 311 | 7.0 | 12.0 | 0.00 | 0.00 | 0.00 | 49 | 1015.0 |
| 20260901204539 | 74 | 263 | 4.0 | 13.0 | 0.00 | 0.00 | 0.00 | 49 | 1015.0 |
| 20260901204020 | 75 | 293 | 8.0 | 14.0 | 0.00 | 0.00 | 0.00 | 50 | 1015.3 |
| 20260901203519 | 74 | 234 | 8.0 | 14.0 | 0.00 | 0.00 | 0.00 | 48 | 1015.2 |
| 20260901203051 | 74 | 227 | 7.0 | 14.0 | 0.00 | 0.00 | 0.00 | 49 | 1015.2 |
| 20260901202521 | 74 | 234 | 3.0 | 13.0 | 0.00 | 0.00 | 0.00 | 49 | 1015.3 |
| 20260901202021 | 75 | 261 | 8.0 | 13.0 | 0.00 | 0.00 | 0.00 | 47 | 1015.4 |
| 20260901201537 | 75 | 228 | 8.0 | 19.0 | 0.00 | 0.00 | 0.00 | 48 | 1015.4 |
| 20260901201018 | 76 | 209 | 10.0 | 19.0 | 0.00 | 0.00 | 0.00 | 47 | 1015.5 |
| 20260901200519 | 74 | 328 | 5.0 | 10.0 | 0.00 | 0.00 | 0.00 | 52 | 1015.4 |
| 20260901200041 | 73 | 0 | 2.0 | 17.0 | 0.00 | 0.00 | 0.00 | 51 | 1015.5 |
| 20260901195516 | 75 | 269 | 9.0 | 17.0 | 0.00 | 0.00 | 0.00 | 48 | 1015.6 |
| 20260901195021 | 76 | 259 | 11.0 | 16.0 | 0.00 | 0.00 | 0.00 | 49 | 1015.6 |
| 20260901194541 | 76 | 242 | 8.0 | 15.0 | 0.00 | 0.00 | 0.00 | 50 | 1015.6 |
| 20260901194021 | 73 | 301 | 6.0 | 16.0 | 0.00 | 0.00 | 0.00 | 55 | 1015.7 |
| 20260901193519 | 74 | 275 | 10.0 | 16.0 | 0.00 | 0.00 | 0.00 | 50 | 1015.7 |
| 20260901193041 | 74 | 252 | 11.0 | 16.0 | 0.00 | 0.00 | 0.00 | 52 | 1015.8 |
| 20260901192517 | 75 | 235 | 9.0 | 14.0 | 0.00 | 0.00 | 0.00 | 49 | 1015.9 |
| 20260901192019 | 75 | 197 | 8.0 | 16.0 | 0.00 | 0.00 | 0.00 | 46 | 1015.8 |
| 20260901191537 | 74 | 236 | 10.0 | 16.0 | 0.00 | 0.00 | 0.00 | 49 | 1015.9 |
| 20260901191017 | 74 | 231 | 8.0 | 15.0 | 0.00 | 0.00 | 0.00 | 49 | 1015.8 |
| 20260901190519 | 74 | 228 | 9.0 | 14.0 | 0.00 | 0.00 | 0.00 | 49 | 1015.8 |
| 20260901190035 | 72 | 208 | 7.0 | 12.0 | 0.00 | 0.00 | 0.00 | 51 | 1015.8 |
| 20260901185521 | 72 | 263 | 6.0 | 13.0 | 0.00 | 0.00 | 0.00 | 51 | 1015.8 |
| 20260901185020 | 71 | 247 | 8.0 | 14.0 | 0.00 | 0.00 | 0.00 | 53 | 1016.0 |
| 20260901184534 | 73 | 234 | 8.0 | 14.0 | 0.00 | 0.00 | 0.00 | 52 | 1016.1 |
| 20260901184021 | 73 | 256 | 9.0 | 14.0 | 0.00 | 0.00 | 0.00 | 53 | 1016.1 |
| 20260901183522 | 71 | 228 | 9.0 | 14.0 | 0.00 | 0.00 | 0.00 | 55 | 1016.1 |
| 20260901183048 | 70 | 221 | 8.0 | 13.0 | 0.00 | 0.00 | 0.00 | 57 | 1016.1 |
| 20260901182516 | 69 | 216 | 10.0 | 13.0 | 0.00 | 0.00 | 0.00 | 58 | 1016.0 |
| 20260901182017 | 69 | 233 | 6.0 | 12.0 | 0.00 | 0.00 | 0.00 | 57 | 1016.1 |
| 20260901181537 | 69 | 221 | 8.0 | 12.0 | 0.00 | 0.00 | 0.00 | 58 | 1016.1 |
| 20260901181022 | 69 | 197 | 5.0 | 9.0 | 0.00 | 0.00 | 0.00 | 58 | 1015.9 |
| 20260901180523 | 69 | 209 | 4.0 | 10.0 | 0.00 | 0.00 | 0.00 | 58 | 1016.0 |
| 20260901180035 | 69 | 198 | 6.0 | 11.0 | 0.00 | 0.00 | 0.00 | 59 | 1016.0 |
| 20260901175517 | 69 | 223 | 8.0 | 11.0 | 0.00 | 0.00 | 0.00 | 60 | 1016.0 |
| 20260901175019 | 69 | 223 | 4.0 | 11.0 | 0.00 | 0.00 | 0.00 | 60 | 1015.9 |
| 20260901174535 | 69 | 237 | 5.0 | 11.0 | 0.00 | 0.00 | 0.00 | 59 | 1016.0 |
| 20260901174020 | 69 | 221 | 8.0 | 12.0 | 0.00 | 0.00 | 0.00 | 59 | 1016.0 |
| 20260901173518 | 69 | 213 | 8.0 | 12.0 | 0.00 | 0.00 | 0.00 | 60 | 1015.9 |
| 20260901173044 | 69 | 215 | 7.0 | 12.0 | 0.00 | 0.00 | 0.00 | 61 | 1015.9 |
| 20260901172518 | 68 | 244 | 4.0 | 13.0 | 0.00 | 0.00 | 0.00 | 61 | 1015.8 |
| 20260901172017 | 68 | 215 | 7.0 | 13.0 | 0.00 | 0.00 | 0.00 | 61 | 1015.8 |
| 20260901171545 | 69 | 254 | 8.0 | 13.0 | 0.00 | 0.00 | 0.00 | 60 | 1015.9 |
| 20260901171020 | 68 | 242 | 8.0 | 12.0 | 0.00 | 0.00 | 0.00 | 60 | 1015.8 |
| 20260901170519 | 68 | 274 | 5.0 | 12.0 | 0.00 | 0.00 | 0.00 | 61 | 1015.7 |
| 20260901170039 | 68 | 234 | 6.0 | 12.0 | 0.00 | 0.00 | 0.00 | 61 | 1015.7 |
| 20260901165519 | 68 | 219 | 7.0 | 12.0 | 0.00 | 0.00 | 0.00 | 62 | 1015.7 |
| 20260901165017 | 68 | 223 | 5.0 | 14.0 | 0.00 | 0.00 | 0.00 | 62 | 1015.7 |
| 20260901164537 | 68 | 255 | 7.0 | 14.0 | 0.00 | 0.00 | 0.00 | 61 | 1015.7 |
| 20260901164019 | 68 | 192 | 8.0 | 13.0 | 0.00 | 0.00 | 0.00 | 62 | 1015.7 |